ONEWEB-0263, 48981

Orbit data source: Space-Track

ONEWEB-0263, 48981 is a payload satellite owned by One Web (NAA) (UK) in LEO that was launched on Thu, 01 Jul 2021 UTC via a SOYUZ-2-1B launch vehicle from the Vostochny Cosmodrome (VOSTO). Payload-class satellites include a variety of spacecraft equipped with specific instruments for various scientific and technological missions. These include communications satellites like Starlink; space stations such as the ISS; scientific satellites like the Hubble; Earth observation satellites from companies like Planet Labs, Umbra, and HawkEye 360; GPS; miniature CubeSats for education and research; and military/defense satellites.

Loading next visibility...
Identifier
48981, 2021-060Q
Orbit
LEO
Country
Flag of UKUK
Related business
Manufacturer
One Web
Mission
Operational Commercial Communications
Bus & Motor
ARROW, Unknown motor
Mass
148 kg wet, ~140 kg dry
Launch date (UTC)
2021-07-01 (5 years ago)
Launch vehicle
SOYUZ-2-1B
Launch site
Vostochny Cosmodrome (VOSTO)
Object type
Payload
Rocket body
Debris
Shape & HBR
Trap Box + 2 Pan, 6.7 m
Radar Cross Section
3.464 m², Large (>1 m²)

Expand to show TLE details & history
Last TLE update: 2 days ago

TLE from 2 days ago
0 ONEWEB-0263
1 48981U 21060Q   26171.41496515 -.00000008  00000-0 -54126-4 0  9993
2 48981  87.9095 228.1408 0001826 104.3982 255.7352 13.16595424240015
Epoch: 2026-06-20T09:57Z
TLE epoch observation values (Epoch: 2026-06-20T09:57:32.988Z)
Latitude
-0.00002°
Longitude
170.12343°
Altitude
1,200.99 km
Speed
7.253 km/s
True Right ascension
15h 12m 33s
True Declination
0° 00' 00"
Sunlit
Object was in full shadow at epoch
Visualization orbit readout
Latitude
Unknown
Longitude
Unknown
Altitude
Unknown
Speed
Unknown
Apparent Right ascension
Unknown
Apparent Declination
Unknown
Sunlit
N/A
Visualization observer readout
Local Sidereal Time
21:42:51
Azimuth
Unknown
Elevation
Unknown
Doppler factor
Unknown
Orbital elements
Apogee altitude
1,196.245 km
Perigee altitude
1,193.48 km
Semi-major axis
7,573 km
Eccentricity
0.00018
Inclination
87.9095°
RAAN
228.1408°
Arg. of periapsis
104.3982°
True anomaly
255.71492°
Mean anomaly
255.7352°
Eccentric anomaly
255.72506°
Mean motion
3.29338 °/min
Orbital period
109.31 mins
BSTAR
-0.000054126
Loading maneuver chart data...
Computing Atmospheric mass density...
Loading historical data...
Loading historical data...
Loading historical data...
Loading historical data...
Loading historical data...
Loading historical data...
Loading historical data...

Documentation

Showing up to 5 results
|